Location: Rocktram
(38.2574°N, 122.2805°W)
Time: 21:28:44
(UTC+00:00)

OAO 3 Copernicus - Pass Details

Date: 30 March 2020
Orbit: 694 x 705 km, 35.0° (Epoch: 30 May)

Event Time Altitude Azimuth Distance (km) Brightness Sun altitude
Rises 04:29:06 0° 267° (W) 3,059 8.6 -23.2°
Reaches altitude 10° 04:31:32 10° 264° (W) 2,142 7.6 -23.6°
Enters shadow 04:36:22 58° 191° (S) 803 4.4 -24.5°
